Probability
8 7 4 1 0 0 0 0 0 0 0 0 0 0 0 0 0 0 0 0 0 0 0 0 0 0 0 0 0 0 0 0 0 0 0 0 0 0 0 0 0 0 0 0 0 0 0 0 0
5 4 2 0 0 0 0 0 0 0 0 0 0 0 0 0 0 0 0 0 0 0 0 0 0 0 0 0 0 0 0 0 0 0 0 0 0 0 0 0 0 0 0 0 0 0 0 0 0
1 1 0 0 0 0 0 0 0 0 0 0 0 0 0 0 0 0 0 0 0 0 0 0 0 0 0 0 0 0 0 0 0 0 0 0 0 0 0 0 0 0 0 0 0 0 0 0 0
0 0 0 0 0 0 0 0 0 0 0 0 0 0 0 0 0 0 0 0 0 0 0 0 0 0 0 0 0 0 0 0 0 0 0 0 0 0 0 0 0 0 0 0 0 0 0 0 0
0 0 0 0 0 0 0 0 0 0 0 0 0 0 0 0 0 0 0 0 0 0 0 0 0 0 0 0 0 0 0 0 0 0 0 0 0 0 0 0 0 0 0 0 0 0 0 0 0
0 0 0 0 0 0 0 0 0 0 0 0 0 0 0 0 0 0 0 0 0 0 0 0 0 0 0 0 0 0 0 0 0 0 0 0 0 0 0 0 0 0 0 0 0 0 0 0 0
0 0 0 0 0 0 0 0 0 0 0 0 0 0 0 0 0 0 0 0 0 0 0 0 0 0 0 0 0 0 0 0 0 0 0 0 0 0 0 0 0 0 0 0 0 0 0 0 0
0 0 0 0 0 0 0 0 0 0 0 0 0 0 0 0 0 0 0 0 0 0 0 0 0 0 0 0 0 0 0 0 0 0 0 0 0 0 0 0 0 0 0 0 0 0 0 0 0
0 0 0 0 0 0 0 0 0 0 0 0 1 1 0 0 0 0 0 0 0 0 0 0 0 0 0 0 0 0 0 0 0 0 0 0 0 0 0 0 0 0 0 0 0 0 0 0 0
0 0 0 0 0 0 0 0 0 0 0 0 1 1 1 1 1 0 0 0 0 0 0 0 0 0 0 0 0 0 0 0 0 0 0 0 0 0 0 0 0 0 0 0 0 0 0 0 0
0 0 0 0 0 0 0 0 0 0 0 0 1 2 2 2 1 1 1 1 0 0 0 0 0 0 0 0 0 0 1 0 0 0 0 0 0 0 0 0 0 0 0 0 0 0 0 0 0
0 0 0 0 0 0 0 0 0 0 0 0 2 4 4 3 1 0 0 1 1 1 1 1 1 0 1 1 0 0 0 0 0 0 1 1 0 0 0 0 0 0 0 0 0 0 0 0 0
0 0 0 0 0 0 0 0 0 0 0 1 3 5 5 4 2 1 1 1 1 1 2 2 2 1 1 2 1 0 0 0 0 0 1 2 1 0 0 0 0 0 0 0 0 0 0 0 0
0 0 0 0 0 0 0 0 0 0 0 0 1 2 2 2 2 2 2 1 1 1 1 1 2 2 3 4 3 1 1 1 1 1 1 2 2 1 1 0 0 0 0 0 0 0 0 0 0
0 0 0 0 0 0 0 0 0 0 0 0 0 0 0 0 1 1 1 1 1 1 1 1 2 4 5 6 6 4 2 2 3 4 4 3 3 2 1 0 0 0 0 0 0 0 0 0 0
0 0 0 0 0 0 0 0 0 0 0 0 0 0 0 0 0 0 0 0 1 1 1 1 1 3 5 6 7 6 5 6 9 10 9 7 5 4 4 3 2 1 1 0 0 0 0 0 0
0 0 0 0 0 0 0 0 0 0 0 0 0 0 0 0 0 0 0 0 0 0 1 1 0 1 3 4 5 8 10 12 17 20 18 13 11 10 10 9 7 4 3 2 1 0 0 0 0
0 0 0 0 0 0 0 0 0 0 0 0 0 0 0 0 0 0 0 0 0 0 0 0 0 0 1 1 4 10 14 18 25 29 26 20 17 16 17 17 11 7 5 3 1 1 0 0 0
0 0 0 0 0 0 0 0 0 0 0 0 0 0 0 0 0 0 0 0 0 0 0 0 0 0 0 1 3 8 14 20 26 29 26 21 20 20 22 21 15 10 6 3 1 2 1 0 0
0 0 0 0 0 0 0 0 0 0 0 0 0 0 0 0 0 0 0 0 0 0 0 0 0 0 0 1 3 6 12 19 23 24 21 17 17 21 23 22 19 14 8 4 3 3 3 2 2
0 0 0 0 0 0 0 0 0 0 0 0 0 0 0 0 0 0 0 0 0 0 0 0 0 0 0 2 4 7 11 17 20 22 21 18 17 19 22 24 23 18 14 9 6 5 4 4 5
0 0 0 0 0 0 0 0 0 0 0 0 0 0 0 0 0 0 0 0 0 0 0 0 1 1 1 2 5 7 10 13 16 22 27 25 21 20 22 26 27 24 19 14 9 6 5 5 5
0 0 0 0 0 0 0 0 0 0 0 0 0 0 0 0 0 0 0 0 0 0 0 0 1 1 1 2 4 7 9 9 12 21 29 30 25 21 21 26 29 27 22 17 13 10 7 5 5
0 0 0 0 0 0 0 0 0 0 0 0 0 0 0 0 0 0 0 0 0 0 0 0 1 1 1 2 4 6 7 7 10 18 26 29 25 20 18 21 27 27 22 18 15 12 9 7 6
0 0 0 0 0 0 0 0 0 0 0 0 0 0 0 0 0 0 0 0 0 0 0 0 0 0 1 2 3 4 5 5 7 12 18 21 19 16 14 16 22 23 18 15 13 11 10 8 7
0 0 0 0 0 0 0 0 0 0 0 0 0 0 0 0 0 0 0 0 0 0 0 0 0 0 0 1 1 2 2 3 3 5 9 12 12 11 10 12 16 16 13 11 10 10 9 8 7
0 0 0 0 0 0 0 0 0 0 0 0 0 0 0 0 0 0 0 0 0 0 0 0 0 0 0 0 0 0 1 1 1 2 4 7 8 9 9 9 10 11 10 9 9 8 7 7 7
0 0 0 0 0 0 0 0 0 0 0 0 0 0 0 0 0 0 0 0 0 0 0 0 0 0 0 0 0 0 1 1 2 2 2 3 5 6 7 7 8 8 8 9 8 7 6 5 6
0 0 0 0 0 0 0 0 0 0 0 0 0 0 0 0 0 0 0 0 0 0 0 0 0 0 0 0 0 0 1 2 2 1 0 1 1 2 4 6 6 5 4 5 6 5 4 4 4
0 0 0 0 0 0 0 0 0 0 0 0 0 0 0 0 0 0 0 0 0 0 0 0 0 0 0 0 0 0 1 1 1 0 0 0 0 0 1 3 3 2 1 2 3 3 3 3 3
Wind_Speed
8 7 4 3 4 6 11 8 6 5 4 5 4 1 2 4 5 6 5 12 14 15 14 15 13 13 12 11 11 10 10 10 9 8 8 8 8 7 6 5 5 4 4 4 4 4 4 4 4
6 5 4 4 3 9 11 8 8 8 6 4 4 3 3 6 7 6 7 11 14 14 13 13 14 13 12 11 11 10 10 9 9 8 8 7 7 7 6 5 5 4 4 4 4 4 4 4 4
6 5 4 0 7 10 10 8 8 7 5 4 4 5 5 6 5 5 8 13 13 13 12 13 13 13 12 11 11 10 9 9 9 8 7 7 7 6 6 5 5 4 4 4 4 4 4 4 4
4 4 3 4 11 9 7 6 5 5 6 7 4 6 7 7 4 7 12 13 13 11 11 13 11 12 11 11 10 10 9 9 9 8 8 7 7 6 6 5 5 5 5 4 4 4 4 4 4
4 3 3 7 9 8 7 7 5 7 7 8 7 8 8 7 7 11 12 11 11 11 10 12 11 11 10 10 10 10 9 9 8 8 7 7 6 6 6 5 5 5 4 4 4 3 3 3 3
3 2 3 6 8 7 8 7 6 9 9 8 7 7 8 6 7 9 10 9 9 9 9 11 11 9 10 10 10 9 9 9 8 8 7 7 6 6 6 5 5 4 4 4 3 3 3 3 3
2 1 4 6 5 6 7 7 10 9 11 11 8 6 7 7 6 7 7 6 6 7 8 8 11 11 10 9 9 10 10 9 9 8 8 7 6 6 6 5 4 4 4 4 3 3 3 3 3
2 2 4 4 4 6 6 7 8 11 10 10 10 8 6 7 6 5 5 4 5 6 7 7 7 8 10 11 12 10 10 10 9 9 9 8 7 7 6 7 6 4 4 3 3 3 3 3 3
3 2 4 3 3 6 7 7 8 8 11 13 13 12 8 8 6 5 4 3 3 4 5 6 7 7 7 7 8 11 11 10 10 10 10 9 9 9 9 7 6 5 5 4 4 3 3 3 4
1 2 6 5 5 8 12 11 8 7 12 13 14 13 10 7 6 4 2 1 1 3 4 5 6 6 7 6 6 7 8 9 10 8 10 9 7 5 5 8 6 6 6 6 5 3 5 8 6
5 6 7 7 7 8 10 14 15 8 12 12 12 11 9 9 8 8 7 6 6 4 4 5 6 7 7 5 6 4 4 5 7 9 9 8 6 5 6 5 8 8 9 8 8 8 7 6 4
8 10 8 7 8 9 9 9 13 18 11 11 11 11 11 11 11 11 11 11 9 8 7 7 7 7 8 7 6 6 5 5 6 7 9 7 5 6 6 5 5 5 5 5 6 5 6 6 7
9 10 13 16 19 18 17 16 13 14 11 11 12 13 14 13 12 11 10 10 10 10 10 10 8 8 7 7 6 7 7 7 7 6 7 9 7 7 7 6 5 6 5 6 6 6 6 7 6
10 13 12 10 11 11 16 14 10 11 10 11 13 13 13 13 13 12 12 11 11 11 10 10 9 8 7 6 7 7 7 7 7 6 8 10 8 7 7 7 6 6 6 6 6 8 6 6 6
12 12 11 8 6 5 6 13 11 10 9 12 12 12 12 12 11 12 11 11 10 10 10 10 9 8 7 7 7 7 7 6 6 6 8 10 9 9 8 7 7 7 7 8 7 8 6 6 6
6 6 5 8 6 3 1 8 10 9 9 11 11 11 10 11 12 11 11 11 10 9 9 9 8 8 8 7 6 6 6 6 6 5 6 9 10 10 8 7 7 7 6 6 6 6 7 7 7
5 3 3 6 9 4 7 8 8 9 9 10 11 11 11 11 12 12 12 12 11 10 10 9 9 9 8 8 6 6 6 6 5 5 5 8 10 10 8 7 7 8 6 6 7 7 7 7 6
1 1 2 5 7 8 11 9 8 9 10 11 11 11 12 13 13 13 13 12 11 10 10 9 9 8 9 7 5 5 5 5 5 5 7 8 7 9 7 6 8 7 6 6 7 8 7 6 6
3 1 3 6 4 6 9 9 8 9 11 12 12 12 13 13 14 13 13 12 12 11 11 10 9 9 7 6 5 5 4 4 5 6 8 8 8 8 7 6 7 7 6 7 8 7 8 7 7
0 1 3 6 4 4 7 8 7 8 11 12 13 13 14 15 15 15 14 14 13 12 11 11 10 9 8 6 6 5 6 5 5 6 7 9 10 9 8 8 7 7 6 8 8 7 6 6 6
3 3 1 4 6 5 5 5 6 6 9 11 12 13 14 15 16 16 16 15 14 13 12 10 10 10 8 8 6 5 5 5 5 6 6 8 10 9 9 10 8 8 8 7 8 8 8 7 6
1 3 1 5 7 3 4 3 6 6 9 13 14 14 15 15 15 15 15 15 14 13 12 11 10 10 8 7 6 6 5 5 5 5 5 6 8 9 9 10 10 9 8 8 8 8 7 7 6
4 2 2 5 5 4 0 5 5 6 11 14 15 15 15 15 15 15 15 14 14 13 11 10 10 9 8 7 6 6 5 5 4 4 5 5 5 7 8 8 9 9 8 9 9 9 9 7 7
0 4 5 5 6 4 3 4 4 8 12 14 14 15 15 15 15 14 15 14 13 12 11 10 10 9 8 7 6 5 5 5 4 4 3 3 3 3 5 6 7 7 7 8 8 8 10 8 9
2 5 5 6 4 2 2 2 5 8 10 11 13 14 14 14 14 14 15 15 14 13 12 11 10 9 9 8 7 6 6 5 5 4 3 2 1 2 3 4 4 5 6 6 7 7 8 9 9
3 6 6 5 2 3 2 1 5 6 7 9 10 12 13 13 13 14 14 13 12 12 12 12 10 9 9 8 7 7 6 4 4 4 4 3 1 1 1 3 3 3 4 5 6 6 7 8 8
2 3 5 4 0 1 3 2 3 4 8 10 11 12 13 13 13 13 13 13 13 12 12 11 11 10 10 9 8 7 7 7 7 7 6 4 4 3 2 1 2 2 2 3 4 4 6 6 7
5 3 3 4 3 1 2 1 3 7 9 10 11 12 12 12 12 12 12 12 11 11 11 12 12 11 11 10 9 7 8 8 8 7 8 7 7 6 4 3 2 2 1 1 2 3 3 4 5
2 1 2 1 4 4 0 3 5 5 7 8 10 10 11 11 11 11 10 10 10 10 10 11 11 11 11 10 10 10 9 9 9 9 9 8 7 7 7 6 5 4 3 1 0 1 3 3 3
3 4 3 3 2 2 1 4 4 2 4 6 8 9 10 10 10 9 10 10 10 11 11 12 12 12 11 10 10 10 10 10 10 10 9 9 8 8 7 7 7 6 5 4 3 2 1 2 3
Wind_Direction
194 191 200 227 216 91 72 63 53 56 54 53 65 55 8 23 2 49 102 151 143 145 142 149 150 147 143 139 136 134 133 133 135 138 142 143 146 148 149 148 150 147 142 139 135 130 122 113 112
175 169 217 239 101 85 73 57 56 47 66 72 70 54 60 59 42 80 133 145 148 145 148 149 148 149 146 144 141 139 138 138 138 140 141 144 147 148 150 148 145 141 136 132 128 125 116 109 105
172 211 257 122 68 66 68 54 59 70 52 34 61 50 39 42 66 110 135 150 151 147 148 138 151 151 150 149 147 146 147 147 148 150 149 149 150 149 150 152 151 144 131 121 116 117 114 105 99
191 220 228 93 79 63 46 49 58 72 61 44 52 73 70 43 57 113 137 152 150 149 148 141 155 153 154 154 154 154 156 156 156 157 156 155 154 154 152 153 150 142 131 122 113 113 111 107 100
235 252 130 95 79 66 49 39 45 45 52 46 48 72 73 55 84 121 141 152 155 155 153 148 158 159 161 161 161 162 162 163 162 162 162 162 163 162 162 157 145 138 130 121 110 110 109 105 97
236 239 116 92 84 67 51 53 52 52 58 51 47 68 70 83 105 127 141 158 161 159 161 153 159 170 172 171 171 171 172 173 173 171 171 170 172 171 165 157 150 143 131 120 108 105 107 106 102
294 93 97 99 95 71 37 43 42 49 52 38 20 64 97 96 101 126 140 154 162 167 173 176 171 177 184 187 186 185 184 185 185 183 181 181 180 178 172 166 161 153 144 137 124 116 115 110 100
312 138 117 98 96 69 33 60 44 38 54 37 20 36 75 103 115 121 124 144 172 184 188 194 197 195 192 189 191 198 198 195 194 194 192 189 189 191 186 194 174 178 173 166 152 141 128 115 94
263 166 101 78 79 70 42 64 51 53 63 51 44 37 50 90 110 114 117 141 185 217 221 216 215 214 223 220 188 198 206 204 202 200 197 202 208 198 192 193 161 194 195 188 182 174 154 160 144
330 86 72 58 71 90 64 51 33 56 48 32 32 41 59 76 80 78 71 91 203 236 238 245 246 236 232 231 222 219 213 203 212 211 199 210 215 213 221 134 185 209 208 202 199 191 196 224 194
56 68 87 75 87 97 92 64 37 52 39 13 11 27 45 49 43 32 21 9 355 333 307 281 267 255 251 241 242 233 231 222 223 222 212 218 217 207 216 192 187 201 206 209 180 204 216 218 210
88 61 68 65 74 75 78 83 60 47 35 20 31 38 44 42 35 27 17 10 2 356 345 323 296 274 259 251 246 243 236 230 229 227 223 217 220 224 214 216 211 205 205 212 219 222 211 221 212
102 95 83 84 82 84 85 83 75 46 35 37 43 44 41 38 32 27 21 16 9 2 350 339 329 306 283 269 260 252 248 244 236 230 235 224 224 228 221 218 212 222 217 203 218 225 210 219 220
103 107 99 90 91 85 82 71 58 30 29 41 43 41 39 35 27 22 17 12 5 357 347 341 332 323 304 278 259 256 255 249 251 241 239 237 229 231 230 229 215 221 221 220 218 217 210 218 217
130 121 100 64 91 119 103 61 40 23 29 39 36 34 31 28 24 18 9 2 358 350 344 342 331 328 318 300 278 267 260 259 253 247 248 246 240 237 231 235 226 218 216 216 218 213 217 220 215
174 178 126 58 31 30 183 70 35 20 31 36 30 25 21 20 15 12 2 355 350 345 341 339 339 334 324 311 291 274 266 260 254 253 251 254 251 245 240 236 235 229 222 219 211 220 212 213 218
204 226 126 89 34 47 82 84 45 27 31 32 24 16 12 10 9 4 357 350 345 340 337 335 335 331 326 313 296 278 267 257 250 248 245 248 249 247 238 239 236 226 217 219 218 215 219 220 218
304 286 93 82 58 79 91 92 61 40 33 28 18 11 7 3 0 356 351 347 340 337 334 334 330 328 323 313 303 287 265 254 244 239 241 244 248 246 239 234 236 230 218 218 222 218 219 232 227
7 339 85 89 100 82 96 92 66 42 31 21 14 7 3 358 352 354 348 344 340 338 335 332 328 328 326 317 311 301 283 266 251 241 239 238 238 238 235 233 231 224 218 218 220 218 217 220 222
12 236 117 110 110 113 113 95 74 45 30 20 10 4 1 354 351 352 347 344 341 337 333 328 327 327 325 313 300 286 288 276 258 247 239 235 232 229 227 225 224 220 217 219 217 212 218 214 214
45 351 121 146 134 142 168 138 73 49 31 24 15 5 360 354 348 347 345 342 339 337 333 328 327 323 323 318 303 294 281 269 258 248 240 235 233 228 225 226 224 222 217 217 215 206 210 212 213
82 31 279 188 202 153 250 227 77 20 19 16 9 2 357 353 348 346 342 341 340 338 334 329 327 326 328 323 308 303 293 284 279 271 255 241 235 232 226 223 221 221 218 218 214 207 208 211 210
24 354 237 207 215 184 302 279 80 18 7 4 1 358 356 353 350 346 344 341 338 339 336 331 330 331 333 329 317 303 299 295 290 282 264 253 239 234 228 221 219 219 218 218 211 203 205 209 212
291 163 148 182 214 208 23 307 52 19 357 349 352 354 355 354 352 351 349 345 344 344 342 338 337 338 341 338 335 330 322 316 312 301 281 260 243 232 225 222 218 217 216 215 210 207 209 213 215
263 249 220 203 206 95 41 320 50 16 357 349 348 351 354 356 355 355 352 351 351 350 350 349 347 345 349 351 354 354 351 342 337 328 312 298 261 228 210 205 204 206 208 210 211 209 211 213 213
12 313 317 314 348 112 163 20 60 17 359 356 357 358 359 358 357 356 354 353 353 353 357 357 355 354 357 360 2 8 12 1 359 354 351 351 330 273 182 182 183 190 205 214 217 215 214 213 213
325 31 348 318 9 203 120 103 122 19 8 7 5 6 5 1 1 358 357 359 358 359 2 1 2 6 5 6 10 15 14 18 21 22 24 24 28 32 60 120 147 156 179 208 215 218 217 214 213
20 359 261 279 285 248 141 101 8 4 2 1 3 3 1 358 1 1 0 0 2 2 7 12 15 15 16 16 17 19 22 29 33 33 33 32 30 32 44 58 70 92 112 170 195 204 212 213 213
24 68 23 23 331 314 3 83 40 356 352 349 355 -0 360 359 360 2 5 5 9 12 14 18 19 19 17 18 20 24 24 27 34 35 33 32 35 39 43 46 51 55 58 72 120 219 201 202 199
20 15 313 310 77 340 339 91 82 351 342 343 347 356 1 2 4 8 10 11 15 17 19 21 21 21 20 21 24 27 29 33 35 33 31 33 36 39 44 49 53 51 49 46 44 38 161 191 190